Cartersville, GA

7:44 AM EST on November 15, 2019 (GMT -0500)
Cartersville

Weather History for KVPC - September, 2019

Change the Weather History Date:

Wednesday, September 18, 2019

  Actual Average Record
Temperature  
Mean Temperature 78 °F 71 °F  
Max Temperature 89 °F 82 °F 93 °F (2010)
Min Temperature 66 °F 59 °F 51 °F (2000)
Degree Days  
Heating Degree Days 0 0  
Month to date heating degree days 0 0  
Since 1 July heating degree days 0 0  
Cooling Degree Days 12 6  
Month to date cooling degree days 297 157  
Year to date cooling degree days 1869 1422  
Growing Degree Days 28 (Base 50)    
Moisture  
Dew Point 65 °F    
Average Humidity 66    
Maximum Humidity 87    
Minimum Humidity 49    
Precipitation  
Precipitation 0.00 in 0.13 in 2.75 in (2016)
Month to date precipitation 0.01 2.05  
Year to date precipitation 31.55 36.64  
Sea Level Pressure  
Sea Level Pressure 30.00 in    
Wind  
Wind Speed 4 mph ()    
Max Wind Speed 14 mph    
Max Gust Speed 21 mph    
Visibility 10.0 miles    
Events      
T = Trace of Precipitation, MM = Missing Value Source: Averaged Metar Reports

Daily Weather History Graph

Daily Weather History Graph

Search for Another Location

Airport or City:

Astronomy

Sep. 18, 2019 Rise Set
Actual Time 7:24 AM EDT 7:42 PM EDT
Civil Twilight 6:59 AM EDT 8:07 PM EDT
Nautical Twilight 6:30 AM EDT 8:36 PM EDT
Astronomical Twilight 6:00 AM EDT 9:06 PM EDT
Moon 10:26 PM EDT (9/18) 11:17 AM EDT (9/18)
Length of Visible Light 13h 07m
Length of Day
12h 17m
Waning Gibbous, 82% of the Moon is Illuminated
Sep 18
Waning Gibbous
Sep 21
Last Quarter
Sep 28
New
Oct 5
First Quarter
Oct 13
Full

Hourly Weather History & Observations

Time (EDT) Temp. Heat Index Dew Point Humidity Pressure Visibility Wind Dir Wind Speed Gust Speed Precip Events Conditions
12:53 AM 73.9 °F - 64.9 °F 73% 29.95 in 10.0 mi Calm Calm - N/A   Clear
1:53 AM 73.0 °F - 64.0 °F 73% 29.94 in 10.0 mi Calm Calm - N/A   Clear
2:53 AM 71.1 °F - 64.0 °F 78% 29.94 in 10.0 mi Calm Calm - N/A   Clear
3:53 AM 70.0 °F - 64.0 °F 81% 29.94 in 10.0 mi Calm Calm - N/A   Clear
4:53 AM 69.1 °F - 64.0 °F 84% 29.95 in 10.0 mi Calm Calm - N/A   Clear
5:53 AM 66.9 °F - 63.0 °F 87% 29.96 in 10.0 mi Calm Calm - N/A   Clear
6:53 AM 73.9 °F - 66.0 °F 76% 29.97 in 10.0 mi Variable 3.5 mph - N/A   Clear
7:53 AM 75.0 °F - 66.9 °F 76% 29.99 in 10.0 mi East 6.9 mph - N/A   Clear
8:53 AM 78.1 °F - 66.9 °F 68% 30.00 in 10.0 mi East 9.2 mph - N/A   Clear
9:53 AM 81.0 °F 83.3 °F 66.9 °F 62% 30.01 in 10.0 mi East 10.4 mph 17.3 mph N/A   Clear
10:53 AM 82.9 °F 85.0 °F 66.0 °F 56% 30.02 in 10.0 mi Variable 6.9 mph 17.3 mph N/A   Clear
11:53 AM 84.9 °F 87.1 °F 66.0 °F 53% 30.02 in 10.0 mi SE 8.1 mph - N/A   Clear
12:53 PM 87.1 °F 89.2 °F 66.0 °F 49% 30.02 in 10.0 mi ESE 8.1 mph 17.3 mph N/A   Partly Cloudy
1:53 PM 87.1 °F 89.9 °F 66.9 °F 51% 30.02 in 10.0 mi Variable 4.6 mph 18.4 mph N/A   Mostly Cloudy
2:53 PM 88.0 °F 91.4 °F 68.0 °F 51% 30.01 in 10.0 mi East 8.1 mph - N/A   Overcast
3:53 PM 87.1 °F 90.6 °F 68.0 °F 53% 30.01 in 10.0 mi NE 10.4 mph - N/A   Partly Cloudy
4:53 PM 86.0 °F 89.4 °F 68.0 °F 55% 30.01 in 10.0 mi ENE 8.1 mph 20.7 mph N/A   Clear
5:53 PM 84.9 °F 88.2 °F 68.0 °F 57% 30.01 in 10.0 mi East 8.1 mph - N/A   Clear
6:53 PM 81.0 °F 83.3 °F 66.9 °F 62% 30.01 in 10.0 mi ENE 9.2 mph 16.1 mph N/A   Clear
7:53 PM 78.1 °F - 66.9 °F 68% 30.02 in 10.0 mi East 4.6 mph - N/A   Clear
8:53 PM 75.9 °F - 64.9 °F 69% 30.04 in 10.0 mi East 6.9 mph - N/A   Clear
9:53 PM 75.0 °F - 64.0 °F 69% 30.06 in 10.0 mi East 8.1 mph - N/A   Clear
10:53 PM 73.9 °F - 60.1 °F 62% 30.08 in 10.0 mi Variable 6.9 mph - N/A   Clear
11:53 PM 73.0 °F - 59.0 °F 61% 30.09 in 10.0 mi ESE 8.1 mph - N/A   Clear